Location: *
(48.4333°N, 5.0333°W)
Time: 09:39:33
(UTC+00:00)

SJ-6B - Pass Details

Date: 19 August 2020
Orbit: 509 x 581 km, 97.6° (Epoch: 22 September)

Event Time Altitude Azimuth Distance (km) Brightness Sun altitude
Rises 20:33:13 0° 184° (S) 2,734 6.1 -10.8°
Reaches altitude 10° 20:35:29 10° 192° (SSW) 1,832 5.3 -11.1°
Maximum altitude 20:39:11 38° 262° (W) 841 4.2 -11.6°
Drops below altitude 10° 20:42:52 10° 332° (NNW) 1,806 6.5 -12.1°
Sets 20:45:04 0° 340° (NNW) 2,690 7.3 -12.4°
